Location: Walbrzych
(50.7833°N, 16.2833°E)
Time: 23:40:56
(UTC+01:00)

ISS - Visible Passes

Search period start: 21 January 2018 00:00
Search period end: 31 January 2018 00:00
Orbit: 402 x 407 km, 51.6° (Epoch: 22 January)

Date Brightness Start Highest point End Pass type
(mag) Time Alt. Az. Time Alt. Az. Time Alt. Az.
26 Jan -1.6 18:55:14 10° SSW 18:56:24 18° S 18:56:24 18° S visible
27 Jan -1.9 18:03:38 10° S 18:05:51 17° SE 18:06:25 16° SE visible
27 Jan -0.7 19:38:38 10° WSW 19:39:05 13° WSW 19:39:05 13° WSW visible
28 Jan -3.0 18:46:26 10° SW 18:49:02 40° S 18:49:02 40° S visible
29 Jan -2.7 17:54:24 10° SSW 17:57:18 30° SSE 17:58:54 19° E visible
29 Jan -1.3 19:30:17 10° WSW 19:31:34 22° WSW 19:31:34 22° WSW visible
30 Jan -3.9 18:37:55 10° WSW 18:41:10 72° SSE 18:41:23 68° SE visible
